This demonstration page uses our WeatherBlox Daily Observations layout. Learn more.

39.92423, -83.80882

Hourly Observations for June 10, 2020

Temp ( °F °C ) Dew Point ( °F °C ) Humidity (%) Winds ( mph kmh ) Pressure ( in mb ) Visibility ( mi km ) Precip ( " mm )
12:56 am 00:56 Mostly Clear 78 25.6 72 22.2 82 82 SSW 8 13 29.77 1008 10 16.0934 0.02 0.508
1:56 am 01:56 Partly Cloudy 77 25 72 22.2 85 85 SSW 10 17 29.76 1008 10 16.0934 0.55 13.97
2:56 am 02:56 Partly Cloudy 76 24.4 73 22.8 91 91 S 10 17 29.75 1007 10 16.0934 0.64 16.256
3:56 am 03:56 Clear 76 24.4 74 23.3 94 94 SSW 9 15 29.74 1007 10 16.0934 0.03 0.762
4:23 am 04:23 Mostly Cloudy 75 24 73 23 94 94 SSW 9 15 29.72 1006 10 16.0934 0 0
4:56 am 04:56 Cloudy 76 24.4 74 23.3 94 94 SSW 13 20 29.73 1007 10 16.0934 0.02 0.508
5:56 am 05:56 Cloudy 75 23.9 74 23.3 96 96 S 9 15 29.75 1007 10 16.0934 0.01 0.254
6:56 am 06:56 Cloudy 75 23.9 74 23.3 96 96 S 9 15 29.76 1008 10 16.0934 0.33 8.382
7:25 am 07:25 Cloudy 75 24 73 23 94 94 SSW 7 11 29.75 1007 10 16.0934 0.18 4.572
7:45 am 07:45 Cloudy 75 24 73 23 94 94 S 8 13 29.75 1007 10 16.0934 0.34 8.636
7:56 am 07:56 Cloudy 75 23.9 74 23.3 96 96 SSW 8 13 29.76 1008 10 16.0934 0.38 9.652
8:56 am 08:56 Cloudy 76 24.4 74 23.3 94 94 S 12 19 29.76 1008 10 16.0934 0.18 4.572
9:56 am 09:56 Cloudy 78 25.6 74 23.3 87 87 SSW 12 19 29.75 1008 10 16.0934 0 0
10:56 am 10:56 Cloudy 80 26.7 75 23.9 85 85 S 12 19 29.75 1007 10 16.0934 0 0
11:56 am 11:56 Cloudy 82 27.8 75 23.9 79 79 S 15 24 29.73 1007 10 16.0934 0.25 6.35
12:56 pm 12:56 Cloudy 84 28.9 74 23.3 72 72 S 16 26 29.71 1006 10 16.0934 0.09 2.286
1:31 pm 13:31 Cloudy 82 28 73 23 74 74 S 10 17 29.67 1005 9 14.48406 0.06 1.524
1:56 pm 13:56 Mostly Cloudy 86 30 75 23.9 70 70 S 13 20 29.68 1005 10 16.0934 0.26 6.604
2:56 pm 14:56 Partly Cloudy 89 31.7 73 22.8 59 59 S 22 35 29.65 1004 10 16.0934 1.5 38.1
3:56 pm 15:56 Mostly Cloudy 89 31.7 73 22.8 59 59 SSW 15 24 29.63 1003 10 16.0934 0.04 1.016
4:39 pm 16:39 Mostly Cloudy with Nearby Thunderstorms 88 31 72 22 59 59 S 15 24 29.56 1001 10 16.0934 0.23 5.842
4:56 pm 16:56 Windy with Storms Likely 79 26.1 70 21.1 74 74 SW 23 37 29.66 1004 10 16.0934 0.57 14.478
5:42 pm 17:42 Partly Cloudy 75 24 73 23 94 94 VRB 7 11 29.63 1003 10 16.0934 0.02 0.508
5:56 pm 17:56 Partly Cloudy 76 24.4 74 23.3 94 94 SSE 9 15 29.64 1004 10 16.0934 0.02 0.508
6:56 pm 18:56 Sunny 81 27.2 74 23.3 79 79 SSW 17 28 29.62 1003 10 16.0934 0 0
7:56 pm 19:56 Mostly Sunny 81 27.2 64 17.8 57 57 WSW 20 31 29.65 1004 10 16.0934 0 0
8:56 pm 20:56 Sunny 75 23.9 59 15 58 58 W 24 39 29.7 1006 10 16.0934 0 0
9:56 pm 21:56 Clear 72 22.2 59 15 64 64 W 23 37 29.76 1008 10 16.0934 0 0
10:56 pm 22:56 Mostly Cloudy 71 21.7 59 15 66 66 WSW 15 24 29.81 1009 10 16.0934 0 0
11:56 pm 23:56 Clear 69 20.6 59 15 70 70 WSW 14 22 29.82 1010 10 16.0934 0 0

Powered by AerisWeather